Kaministiqua — CFN4612 — position and weather

sailwx.info

Track history (hours):
 
Tides and Currents Weather Stations Pressure Air Temp Water Temp Dewpoint Dewpoint Depression Visibility Wind Speed Wind Dir Waves Ship Positions

Kaministiqua

Last reported at 2014-Oct-19 11:12 UTC. Time now 2014-Oct-21 21:43 UTC.
Position N 46°38' W 071°56'.

Length 223 m; draft 8 m.

Type: Cargo ship. MMSI: 316009457.

Date/timePositionNaut miles runAvg speedWind from/ knotsBaromVisibWave heightAir tempDewpointWater temp
2014-Oct-19 11:12N 46°38' W 071°56'1212.3
2014-Oct-19 10:14N 46°32' W 072°11'811.9
2014-Oct-19 09:33N 46°26' W 072°19'1211.7
2014-Oct-19 08:33N 46°19' W 072°33'2711.8
2014-Oct-19 06:19N 46°04' W 073°04'910.7
2014-Oct-19 05:29N 45°57' W 073°12'1212.5
2014-Oct-19 04:33N 45°47' W 073°21'1212.3
2014-Oct-19 03:33N 45°37' W 073°30'7 7.1
2014-Oct-19 02:33N 45°30' W 073°31'1 0.7
2014-Oct-19 01:34N 45°29' W 073°31'4 4.3
2014-Oct-19 00:34N 45°25' W 073°31'2 2.1
2014-Oct-18 23:34N 45°24' W 073°34'3 3.4
2014-Oct-18 22:34N 45°24' W 073°39'7 7.0
2014-Oct-18 21:33N 45°23' W 073°49'6 5.9
2014-Oct-18 20:33N 45°19' W 073°55'1 0.9
2014-Oct-18 19:33N 45°18' W 073°56'3 2.9
2014-Oct-18 18:34N 45°16' W 073°58'9 8.7
2014-Oct-18 17:33N 45°14' W 074°10'1111.4
2014-Oct-18 16:33N 45°08' W 074°24'90 7.4
2014-Oct-18 04:27N 44°15' W 076°06'1011.6
2014-Oct-18 03:33N 44°11' W 076°19'1211.8
2014-Oct-18 02:34N 44°01' W 076°28'  
2014-Oct-11 11:19N 43°59' W 076°34'911.6
2014-Oct-11 10:32N 44°05' W 076°25'1010.5
2014-Oct-11 09:33N 44°12' W 076°14'91 6.8
2014-Oct-10 20:09N 45°05' W 074°30'6 9.5
2014-Oct-10 19:32N 45°09' W 074°23'1010.1
2014-Oct-10 18:33N 45°14' W 074°11'8 7.6
2014-Oct-10 17:33N 45°14' W 073°60'5 5.2
2014-Oct-10 16:33N 45°18' W 073°56'1 1.0
2014-Oct-10 15:33N 45°19' W 073°55'6 6.2
2014-Oct-10 14:33N 45°23' W 073°48'7 6.6
2014-Oct-10 13:33N 45°24' W 073°39'4 3.6
2014-Oct-10 12:31N 45°24' W 073°34'4 3.9
2014-Oct-10 11:33N 45°27' W 073°30'3 2.7
2014-Oct-10 10:31N 45°30' W 073°31'4 4.0
2014-Oct-10 09:33N 45°34' W 073°31'8 8.4
2014-Oct-10 08:33N 45°42' W 073°27'9 9.1
2014-Oct-10 07:34N 45°49' W 073°19'9 9.0
2014-Oct-10 06:33N 45°57' W 073°13'10 8.6
2014-Oct-10 05:26N 46°04' W 073°03'9 9.0
2014-Oct-10 04:24N 46°11' W 072°55'810.0
2014-Oct-10 03:33N 46°15' W 072°44'9 8.6
2014-Oct-10 02:33N 46°19' W 072°33'9 9.1
2014-Oct-10 01:33N 46°25' W 072°23'8 8.2
2014-Oct-10 00:33N 46°30' W 072°14'  
Track history (hours):
 
Tides and Currents Weather Stations Pressure Air Temp Water Temp Dewpoint Dewpoint Depression Visibility Wind Speed Wind Dir Waves Ship Positions

Kaministiqua

Last reported at 2014-Oct-19 11:12 UTC. Time now 2014-Oct-21 21:43 UTC.
Position N 46°38' W 071°56'.

Length 223 m; draft 8 m.

Type: Cargo ship. MMSI: 316009457.

Date/timePositionNaut miles runAvg speedWind from/ knotsBaromVisibWave heightAir tempDewpointWater temp
2014-Oct-19 11:12N 46°38' W 071°56'1212.3
2014-Oct-19 10:14N 46°32' W 072°11'811.9
2014-Oct-19 09:33N 46°26' W 072°19'1211.7
2014-Oct-19 08:33N 46°19' W 072°33'2711.8
2014-Oct-19 06:19N 46°04' W 073°04'910.7
2014-Oct-19 05:29N 45°57' W 073°12'1212.5
2014-Oct-19 04:33N 45°47' W 073°21'1212.3
2014-Oct-19 03:33N 45°37' W 073°30'7 7.1
2014-Oct-19 02:33N 45°30' W 073°31'1 0.7
2014-Oct-19 01:34N 45°29' W 073°31'4 4.3
2014-Oct-19 00:34N 45°25' W 073°31'2 2.1
2014-Oct-18 23:34N 45°24' W 073°34'3 3.4
2014-Oct-18 22:34N 45°24' W 073°39'7 7.0
2014-Oct-18 21:33N 45°23' W 073°49'6 5.9
2014-Oct-18 20:33N 45°19' W 073°55'1 0.9
2014-Oct-18 19:33N 45°18' W 073°56'3 2.9
2014-Oct-18 18:34N 45°16' W 073°58'9 8.7
2014-Oct-18 17:33N 45°14' W 074°10'1111.4
2014-Oct-18 16:33N 45°08' W 074°24'90 7.4
2014-Oct-18 04:27N 44°15' W 076°06'1011.6
2014-Oct-18 03:33N 44°11' W 076°19'1211.8
2014-Oct-18 02:34N 44°01' W 076°28'  
2014-Oct-11 11:19N 43°59' W 076°34'911.6
2014-Oct-11 10:32N 44°05' W 076°25'1010.5
2014-Oct-11 09:33N 44°12' W 076°14'91 6.8
2014-Oct-10 20:09N 45°05' W 074°30'6 9.5
2014-Oct-10 19:32N 45°09' W 074°23'1010.1
2014-Oct-10 18:33N 45°14' W 074°11'8 7.6
2014-Oct-10 17:33N 45°14' W 073°60'5 5.2
2014-Oct-10 16:33N 45°18' W 073°56'1 1.0
2014-Oct-10 15:33N 45°19' W 073°55'6 6.2
2014-Oct-10 14:33N 45°23' W 073°48'7 6.6
2014-Oct-10 13:33N 45°24' W 073°39'4 3.6
2014-Oct-10 12:31N 45°24' W 073°34'4 3.9
2014-Oct-10 11:33N 45°27' W 073°30'3 2.7
2014-Oct-10 10:31N 45°30' W 073°31'4 4.0
2014-Oct-10 09:33N 45°34' W 073°31'8 8.4
2014-Oct-10 08:33N 45°42' W 073°27'9 9.1
2014-Oct-10 07:34N 45°49' W 073°19'9 9.0
2014-Oct-10 06:33N 45°57' W 073°13'10 8.6
2014-Oct-10 05:26N 46°04' W 073°03'9 9.0
2014-Oct-10 04:24N 46°11' W 072°55'810.0
2014-Oct-10 03:33N 46°15' W 072°44'9 8.6
2014-Oct-10 02:33N 46°19' W 072°33'9 9.1
2014-Oct-10 01:33N 46°25' W 072°23'8 8.2
2014-Oct-10 00:33N 46°30' W 072°14'  

Dump ship's entire track history